Airfield :
LOGIN :

Register | Disclaimer

   EN    FR    IT 

 










Legend :    VFR   Marginal VFR   IFR   Intensive IFR   Very Intensive IFR
Visi :
Ceiling :
>= 8 km
>= 3000ft
5 to 8 km
1000 to 3000 ft
1500m to 5 km
500 to 1000 ft
800 to 1500m
200 to 500 ft
< 800m
< 200 ft
Symbols :   Thunderstorms  Fog  Heavy snow  Heavy precipitations  Wind > 20 kt
SIGMETs :     Misc.  Thunderstorms  Icing  Turbulence  Mountain Waves  Volcanic Ashes






- Airport Elevation : 143 ft
- IATA code : VDP


EKVD - Kolding Vamdrup

CURRENT METAR :
  • 270450Z AUTO 17004KT 140V200 //// ///////// 01/M00 Q0998

EXPIRED METARs :
  • 270420Z AUTO 17005KT //// ///////// 00/M01 Q0998
  • 270350Z AUTO 17005KT //// ///////// M00/M02 Q0998
  • 270320Z AUTO 16004KT //// ///////// M01/M02 Q0998
  • 270250Z AUTO 16004KT //// ///////// M01/M02 Q0998
  • 270220Z AUTO 17004KT //// ///////// M01/M02 Q0998
  • 270150Z AUTO 17003KT //// ///////// M01/M02 Q0999

Expired Forecast.



MET'MAP, your aeronautical weather chart ! - Copyright ORBIFLY December 2007 - Disclaimer

ORBIFLY MET'MAP TEAM :

Programming & Development : Alexandra Zaïnal
Concept & original design : Baudouin d'Aumeries
Assistance for programming : Marc-Olivier Méhu
Technical & hardware support : Manuel Goepfert

Contact : metmap@orbifly.com




SOURCES & CREDITS :

   NOAA